Terug naar catalogus

STARLINK-37051

ActiefCommunicatieVLEO
NORAD 68080·PAYLOAD·🇺🇸 United States

Gelanceerd Mar 4, 2026 vanaf Vandenberg Space Force Base

Loading…

Volgende Passages (komende 24 uur)

TLE

VersSource: CelesTrak SupGP

Epoch: Sep 14, 2026, 22:59 UTC

1 68080C 26042M   26257.95812500 -.00007097  00000+0 -20968-3 0  2577
2 68080  53.1590  13.7019 0001161  76.5005 351.3055 15.34395219    15

Volg STARLINK-37051 in realtime met AllMySat

Download on the App Store